Date String (YYYY-MM-DD hh:mm:ss) UTC,Instrument flags,Ambient pressure (hPa),Sample flow (lpm),Bypass flow (lpm),Sample temperature (°C),Ambient temperature (°C),ASC tube jacket temperature (°C),LED temperature (°C),Box temperature (°C),Sample RH (%),Span deviation,Mass concentration (μg/m³),Mass concentration (μg/m³),Mass concentration (μg/m³)
DateTimeUTC,F1_M11,P_M11,Q1_M11,Q2_M11,T1_M11,T2_M11,T3_M11,T4_M11,T5_M11,U1_M11,ZSPAN_M11,X0_M11,X2_M11,X1_M11
2022-08-31 08:00:00,,0831.4,5.01,0.00,29.8,28.5,00.0,38.5,31.6,20.2,0000.0,0015.06,0006.26,0005.32
2022-08-31 08:01:00,,0831.5,4.98,0.00,29.8,28.6,00.0,38.5,31.7,20.2,0000.0,0015.33,0006.25,0005.31
2022-08-31 08:02:00,,0831.5,5.01,0.00,29.8,28.7,00.0,38.6,31.7,20.3,0000.0,0015.10,0006.23,0005.30
2022-08-31 08:03:00,,0831.4,5.01,0.00,29.9,28.7,00.0,38.6,31.7,20.2,0000.0,0014.57,0006.19,0005.30
2022-08-31 08:04:00,,0831.5,5.00,0.00,29.9,28.8,00.0,38.6,31.7,20.2,0000.0,0014.40,0006.17,0005.29
2022-08-31 08:05:00,,0831.5,5.01,0.00,29.9,28.8,00.0,38.6,31.8,20.2,0000.0,0014.09,0006.13,0005.27
2022-08-31 08:06:00,,0831.5,5.00,0.00,29.9,28.9,00.0,38.6,31.8,20.2,0000.0,0013.39,0006.08,0005.25
2022-08-31 08:07:00,,0831.4,5.01,0.00,29.9,28.9,00.0,38.6,31.8,20.2,0000.0,0011.98,0006.09,0005.26
2022-08-31 08:08:00,,0831.5,4.99,0.00,30.0,29.0,00.0,38.6,31.9,20.2,0000.0,0011.88,0006.12,0005.25
2022-08-31 08:09:00,,0831.4,5.00,0.00,30.0,29.0,00.0,38.7,31.9,20.1,0000.0,0011.70,0006.11,0005.26
2022-08-31 08:10:00,,0831.5,5.01,0.00,30.0,29.0,00.0,38.7,31.9,20.1,0000.0,0012.48,0006.13,0005.26
2022-08-31 08:11:00,,0831.5,5.00,0.00,30.0,28.6,00.0,38.7,31.9,20.3,0000.0,0013.35,0006.18,0005.27
2022-08-31 08:12:00,,0831.5,5.00,0.00,30.0,27.3,00.0,38.7,31.8,20.8,0000.0,0013.50,0006.17,0005.27
2022-08-31 08:13:00,,0831.4,5.00,0.00,30.0,27.0,00.0,38.6,31.7,20.6,0000.0,0013.67,0006.19,0005.27
2022-08-31 08:14:00,,0831.4,5.00,0.00,29.9,27.1,00.0,38.6,31.6,20.6,0000.0,0013.73,0006.20,0005.29
2022-08-31 08:15:00,,0831.3,5.00,0.00,29.8,27.4,00.0,38.6,31.5,20.6,0000.0,0013.87,0006.20,0005.30
2022-08-31 08:16:00,,0831.3,4.99,0.00,29.8,27.7,00.0,38.5,31.5,20.6,0000.0,0014.07,0006.23,0005.31
2022-08-31 08:17:00,,0831.3,5.00,0.00,29.8,27.9,00.0,38.5,31.5,20.6,0000.0,0013.71,0006.26,0005.32
2022-08-31 08:18:00,,0831.3,5.01,0.00,29.8,28.1,00.0,38.5,31.6,20.6,0000.0,0013.99,0006.27,0005.33
2022-08-31 08:19:00,,0831.3,5.00,0.00,29.8,28.3,00.0,38.5,31.6,20.6,0000.0,0013.82,0006.24,0005.32
2022-08-31 08:20:00,,0831.3,4.99,0.00,29.8,28.4,00.0,38.5,31.6,20.6,0000.0,0013.44,0006.24,0005.32
2022-08-31 08:21:00,,0831.3,5.00,0.00,29.8,28.5,00.0,38.5,31.7,20.6,0000.0,0013.20,0006.25,0005.32
2022-08-31 08:22:00,,0831.3,5.00,0.00,29.8,28.6,00.0,38.5,31.7,20.6,0000.0,0012.38,0006.22,0005.32
2022-08-31 08:23:00,,0831.3,5.01,0.00,29.8,28.7,00.0,38.6,31.7,20.5,0000.0,0012.17,0006.26,0005.33
2022-08-31 08:24:00,,0831.3,5.00,0.00,29.9,28.8,00.0,38.6,31.8,20.4,0000.0,0011.99,0006.26,0005.34
2022-08-31 08:25:00,,0831.4,5.01,0.00,29.9,28.8,00.0,38.6,31.8,20.3,0000.0,0012.40,0006.27,0005.34
2022-08-31 08:26:00,,0831.5,4.98,0.00,29.9,28.9,00.0,38.6,31.8,20.4,0000.0,0012.69,0006.31,0005.34
2022-08-31 08:27:00,,0831.4,5.00,0.00,29.9,28.9,00.0,38.6,31.8,20.4,0000.0,0012.86,0006.28,0005.35
2022-08-31 08:28:00,,0831.4,5.01,0.00,30.0,29.0,00.0,38.6,31.9,20.5,0000.0,0013.18,0006.31,0005.36
2022-08-31 08:29:00,,0831.4,4.99,0.00,30.0,29.0,00.0,38.7,31.9,20.5,0000.0,0013.07,0006.36,0005.39
2022-08-31 08:30:00,,0831.4,5.00,0.00,30.0,29.0,00.0,38.7,31.9,20.4,0000.0,0012.80,0006.38,0005.41
2022-08-31 08:31:00,,0831.4,5.01,0.00,30.0,28.9,00.0,38.7,31.9,20.3,0000.0,0012.86,0006.39,0005.42
2022-08-31 08:32:00,,0831.4,5.01,0.00,30.0,27.6,00.0,38.7,31.8,20.3,0000.0,0012.88,0006.44,0005.42
2022-08-31 08:33:00,,0831.5,5.00,0.00,30.0,26.9,00.0,38.6,31.7,20.4,0000.0,0013.17,0006.47,0005.44
2022-08-31 08:34:00,,0831.4,5.00,0.00,29.9,27.0,00.0,38.6,31.7,20.5,0000.0,0013.19,0006.48,0005.45
2022-08-31 08:35:00,,0831.4,5.00,0.00,29.8,27.3,00.0,38.6,31.5,20.6,0000.0,0013.07,0006.47,0005.45
2022-08-31 08:36:00,,0831.4,5.01,0.00,29.8,27.5,00.0,38.6,31.5,20.7,0000.0,0012.74,0006.49,0005.46
2022-08-31 08:37:00,,0831.4,4.99,0.00,29.8,27.8,00.0,38.5,31.5,20.9,0000.0,0012.49,0006.51,0005.47
2022-08-31 08:38:00,,0831.3,5.00,0.00,29.8,28.0,00.0,38.5,31.6,21.0,0000.0,0012.30,0006.54,0005.50
2022-08-31 08:39:00,,0831.3,5.00,0.00,29.8,28.2,00.0,38.5,31.6,21.0,0000.0,0012.32,0006.58,0005.51
2022-08-31 08:40:00,,0831.3,5.00,0.00,29.8,28.3,00.0,38.5,31.6,21.0,0000.0,0012.53,0006.60,0005.53
2022-08-31 08:41:00,,0831.4,5.00,0.00,29.8,28.5,00.0,38.5,31.6,21.1,0000.0,0013.06,0006.70,0005.54
2022-08-31 08:42:00,,0831.3,4.98,0.00,29.8,28.6,00.0,38.6,31.7,21.1,0000.0,0013.92,0006.76,0005.56
2022-08-31 08:43:00,,0831.3,5.00,0.00,29.8,28.6,00.0,38.6,31.7,21.2,0000.0,0014.37,0006.75,0005.58
2022-08-31 08:44:00,,0831.3,5.01,0.00,29.9,28.7,00.0,38.6,31.7,21.2,0000.0,0014.17,0006.74,0005.60
2022-08-31 08:45:00,,0831.3,5.01,0.00,29.9,28.8,00.0,38.6,31.7,21.2,0000.0,0014.28,0006.77,0005.64
2022-08-31 08:46:00,,0831.4,4.98,0.00,29.9,28.8,00.0,38.6,31.8,21.3,0000.0,0015.14,0006.87,0005.70
2022-08-31 08:47:00,,0831.4,5.01,0.00,29.9,28.9,00.0,38.6,31.8,21.2,0000.0,0016.16,0006.95,0005.75
2022-08-31 08:48:00,,0831.4,5.01,0.00,29.9,28.9,00.0,38.6,31.8,21.2,0000.0,0016.42,0006.99,0005.79
2022-08-31 08:49:00,,0831.5,4.99,0.00,30.0,29.0,00.0,38.6,31.9,21.1,0000.0,0016.66,0007.05,0005.84
2022-08-31 08:50:00,,0831.4,4.98,0.00,30.0,29.0,00.0,38.7,31.9,21.1,0000.0,0016.65,0007.13,0005.88
2022-08-31 08:51:00,,0831.4,5.01,0.00,30.0,29.0,00.0,38.7,31.9,21.0,0000.0,0016.58,0007.13,0005.90
2022-08-31 08:52:00,,0831.4,5.01,0.00,30.0,29.1,00.0,38.7,32.0,21.0,0000.0,0016.27,0007.12,0005.93
2022-08-31 08:53:00,,0831.3,5.01,0.00,30.1,29.1,00.0,38.7,32.0,21.2,0000.0,0015.33,0007.17,0005.98
2022-08-31 08:54:00,,0831.3,4.99,0.00,30.1,28.1,00.0,38.7,31.9,21.4,0000.0,0015.17,0007.25,0006.04
2022-08-31 08:55:00,,0831.2,5.00,0.00,30.0,27.0,00.0,38.7,31.8,21.7,0000.0,0015.43,0007.33,0006.11
2022-08-31 08:56:00,,0831.2,4.99,0.00,30.0,27.0,00.0,38.7,31.7,21.8,0000.0,0015.83,0007.39,0006.15
2022-08-31 08:57:00,,0831.2,5.00,0.00,29.9,27.2,00.0,38.6,31.6,22.0,0000.0,0015.89,0007.42,0006.19
2022-08-31 08:58:00,,0831.2,5.01,0.00,29.9,27.5,00.0,38.6,31.5,22.0,0000.0,0015.38,0007.44,0006.23
2022-08-31 08:59:00,,0831.2,5.01,0.00,29.8,27.8,00.0,38.6,31.6,22.0,0000.0,0016.17,0007.53,0006.27
